Location: Gro� Glienicke
(52.4675°N, 13.1079°E)
Time: 18:06:42
(UTC+00:00)

ATLAS CENTAUR R/B - Pass Details

Date: 06 July 2020
Orbit: 475 x 672 km, 64.7° (Epoch: 13 July)

Event Time Altitude Azimuth Distance (km) Brightness Sun altitude
Rises 21:54:25 0° 301° (WNW) 2,559 5.6 -13.1°
Reaches altitude 10° 21:57:59 10° 265° (W) 1,653 3.9 -13.2°
Maximum altitude 21:59:03 11° 248° (WSW) 1,582 3.6 -13.3°
Drops below altitude 10° 22:00:08 10° 231° (SW) 1,644 3.5 -13.3°
Enters shadow 22:00:56 - 219° (SW) 1,771 3.6 -13.4°
